Terug naar catalogus

DELTA 1 DEB

ActiefSSO
NORAD 12527·DEBRIS·🇺🇸 United States

Gelanceerd Jul 29, 1976 vanaf Vandenberg Space Force Base

Loading…

Volgende Passages (komende 24 uur)

TLE

VersSource: Space-Track

Epoch: Sep 14, 2026, 09:31 UTC

1 12527U 76077DG  26257.39705874 -.00000039  00000-0  47810-4 0  9996
2 12527 102.1663 227.3825 0037591 233.6140 281.7670 12.38111276162991

Volg DELTA 1 DEB in realtime met AllMySat

Download on the App Store